Beaver Falls, PA

4:09 PM EST on November 12, 2019 (GMT -0500)
Beaver County

Weather History for KBVI - September, 2019

Change the Weather History Date:

Sunday, September 15, 2019

  Actual Average Record
Temperature  
Mean Temperature 67 °F -  
Max Temperature 80 °F 72 °F 87 °F (2005)
Min Temperature 54 °F 55 °F 44 °F (2001)
Cooling Degree Days 2    
Growing Degree Days 17 (Base 50)    
Moisture  
Dew Point 57 °F    
Average Humidity 68    
Maximum Humidity 92    
Minimum Humidity 41    
Precipitation  
Precipitation 0.00 in - - ()
Sea Level Pressure  
Sea Level Pressure 30.20 in    
Wind  
Wind Speed 2 mph (SSW)    
Max Wind Speed 8 mph    
Max Gust Speed -    
Visibility 10 miles    
Events      
Averages and records for this station are not official NWS values.
T = Trace of Precipitation, MM = Missing Value Source: NWS Daily Summary

Daily Weather History Graph

Daily Weather History Graph

Search for Another Location

Airport or City:

Astronomy

Sep. 15, 2019 Rise Set
Actual Time 7:01 AM EDT 7:30 PM EDT
Civil Twilight 6:34 AM EDT 7:58 PM EDT
Nautical Twilight 6:02 AM EDT 8:30 PM EDT
Astronomical Twilight 5:28 AM EDT 9:03 PM EDT
Moon 8:37 PM EDT (9/15) 8:10 AM EDT (9/15)
Length of Visible Light 13h 23m
Length of Day
12h 28m
Full, 98% of the Moon is Illuminated
Sep 15
Full
Sep 21
Last Quarter
Sep 28
New
Oct 5
First Quarter
Oct 13
Full

Hourly Weather History & Observations

Time (EDT) Temp. Heat Index Dew Point Humidity Pressure Visibility Wind Dir Wind Speed Gust Speed Precip Events Conditions
12:15 AM 61.2 °F - 53.8 °F 77% 30.24 in 10.0 mi West 3.5 mph - N/A   Clear
12:35 AM 61.7 °F - 53.8 °F 75% 30.24 in 10.0 mi West 3.5 mph - N/A   Clear
12:55 AM 61.2 °F - 53.6 °F 76% 30.24 in 10.0 mi West 3.5 mph - N/A   Clear
12:56 AM 61.2 °F - 53.6 °F 76% 30.24 in 10.0 mi West 4.6 mph - N/A   Clear
1:15 AM 61.0 °F - 53.6 °F 77% 30.24 in 10.0 mi West 3.5 mph - N/A   Clear
1:16 AM 61.0 °F - 53.6 °F 77% 30.24 in 10.0 mi West 3.5 mph - N/A   Clear
1:35 AM 61.0 °F - 53.6 °F 77% 30.24 in 10.0 mi West 3.5 mph - N/A   Clear
1:55 AM 61.3 °F - 53.4 °F 75% 30.24 in 10.0 mi Calm Calm - N/A   Clear
1:56 AM 61.2 °F - 53.4 °F 76% 30.24 in 10.0 mi Calm Calm - N/A   Clear
2:15 AM 61.2 °F - 53.2 °F 75% 30.24 in 10.0 mi Calm Calm - N/A   Clear
2:16 AM 61.3 °F - 53.2 °F 75% 30.24 in 10.0 mi Calm Calm - N/A   Clear
2:35 AM 61.3 °F - 53.4 °F 75% 30.24 in 10.0 mi Calm Calm - N/A   Clear
2:55 AM 60.6 °F - 53.2 °F 77% 30.24 in 10.0 mi Calm Calm - N/A   Clear
2:56 AM 60.6 °F - 53.2 °F 77% 30.24 in 10.0 mi Calm Calm - N/A   Clear
3:15 AM 57.0 °F - 52.9 °F 86% 30.24 in 10.0 mi Calm Calm - N/A   Clear
3:16 AM 57.0 °F - 52.9 °F 86% 30.24 in 10.0 mi Calm Calm - N/A   Clear
3:35 AM 57.0 °F - 53.2 °F 87% 30.23 in 10.0 mi South 3.5 mph - N/A   Clear
3:55 AM 57.7 °F - 53.6 °F 86% 30.23 in 10.0 mi Calm Calm - N/A   Clear
3:56 AM 57.7 °F - 53.6 °F 86% 30.23 in 10.0 mi Calm Calm - N/A   Clear
4:15 AM 57.0 °F - 53.4 °F 88% 30.23 in 10.0 mi Calm Calm - N/A   Clear
4:16 AM 57.0 °F - 53.4 °F 88% 30.23 in 10.0 mi Calm Calm - N/A   Clear
4:35 AM 56.3 °F - 53.1 °F 89% 30.22 in 10.0 mi SSE 3.5 mph - N/A   Clear
4:55 AM 56.3 °F - 53.6 °F 91% 30.22 in 10.0 mi Calm Calm - N/A   Clear
5:15 AM 56.5 °F - 53.2 °F 89% 30.22 in 10.0 mi SSE 3.5 mph - N/A   Clear
5:35 AM 56.1 °F - 53.2 °F 90% 30.22 in 10.0 mi Calm Calm - N/A   Clear
5:55 AM 56.7 °F - 53.8 °F 90% 30.23 in 10.0 mi Calm Calm - N/A   Clear
5:56 AM 56.7 °F - 53.8 °F 90% 30.23 in 10.0 mi Calm Calm - N/A   Clear
6:15 AM 56.3 °F - 53.2 °F 89% 30.23 in 10.0 mi Calm Calm - N/A   Clear
6:16 AM 56.3 °F - 53.2 °F 89% 30.23 in 10.0 mi Calm Calm - N/A   Clear
6:35 AM 55.4 °F - 52.5 °F 90% 30.22 in 10.0 mi Calm Calm - N/A   Clear
6:36 AM 55.4 °F - 52.5 °F 90% 30.22 in 10.0 mi Calm Calm - N/A   Clear
6:55 AM 54.7 °F - 52.3 °F 92% 30.23 in 10.0 mi Calm Calm - N/A   Clear
7:15 AM 55.0 °F - 52.9 °F 92% 30.23 in 10.0 mi Calm Calm - N/A   Scattered Clouds
7:35 AM 55.0 °F - 52.9 °F 92% 30.23 in 10.0 mi Calm Calm - N/A   Clear
7:55 AM 56.8 °F - 54.7 °F 92% 30.23 in 10.0 mi Calm Calm - N/A   Clear
8:15 AM 59.0 °F - 55.0 °F 87% 30.24 in 10.0 mi SSE 3.5 mph - N/A   Clear
8:16 AM 59.0 °F - 55.2 °F 87% 30.24 in 10.0 mi SSE 3.5 mph - N/A   Clear
8:35 AM 60.1 °F - 55.9 °F 86% 30.24 in 10.0 mi Calm Calm - N/A   Clear
8:36 AM 60.3 °F - 56.1 °F 86% 30.24 in 10.0 mi Calm Calm - N/A   Clear
8:47 AM 66.2 °F - 57.2 °F 73% 30.24 in 10.0 mi Calm Calm - N/A   Clear
8:55 AM 64.2 °F - 57.7 °F 79% 30.24 in 10.0 mi Calm Calm - N/A   Clear
9:15 AM 67.1 °F - 58.5 °F 74% 30.24 in 10.0 mi Calm Calm - N/A   Clear
9:16 AM 67.1 °F - 58.6 °F 74% 30.24 in 10.0 mi Calm Calm - N/A   Clear
9:35 AM 68.5 °F - 58.8 °F 71% 30.24 in 10.0 mi Calm Calm - N/A   Clear
9:36 AM 68.7 °F - 58.8 °F 71% 30.24 in 10.0 mi Calm Calm - N/A   Clear
9:47 AM 71.6 °F - 57.2 °F 60% 30.24 in 10.0 mi SW 4.6 mph - N/A   Clear
9:55 AM 70.9 °F - 57.9 °F 63% 30.24 in 10.0 mi SW 4.6 mph - N/A   Clear
10:15 AM 73.6 °F - 59.4 °F 61% 30.25 in 10.0 mi SSW 3.5 mph - N/A   Clear
10:16 AM 73.8 °F - 59.4 °F 61% 30.25 in 10.0 mi SSW 3.5 mph - N/A   Clear
10:35 AM 75.2 °F - 59.2 °F 57% 30.24 in 10.0 mi SSE 4.6 mph - N/A   Clear
10:36 AM 75.2 °F - 59.2 °F 57% 30.24 in 10.0 mi SSE 4.6 mph - N/A   Clear
10:47 AM 75.2 °F - 57.2 °F 53% 30.23 in 10.0 mi SW 4.6 mph - N/A   Clear
10:55 AM 75.7 °F - 58.1 °F 54% 30.23 in 10.0 mi SW 4.6 mph - N/A   Clear
11:15 AM 77.5 °F - 59.4 °F 53% 30.23 in 10.0 mi SSW 4.6 mph - N/A   Clear
11:35 AM 73.9 °F - 57.7 °F 57% 30.23 in 10.0 mi South 4.6 mph - N/A   Clear
11:55 AM 75.9 °F - 58.1 °F 54% 30.23 in 10.0 mi SSW 4.6 mph - N/A   Clear
11:56 AM 76.1 °F - 58.3 °F 54% 30.23 in 10.0 mi SSW 3.5 mph - N/A   Clear
12:35 PM 79.2 °F - 57.7 °F 48% 30.23 in 10.0 mi WSW 8.1 mph - N/A   Clear
12:36 PM 79.3 °F - 57.7 °F 47% 30.23 in 10.0 mi WSW 8.1 mph - N/A   Clear
12:47 PM 78.8 °F - 57.2 °F 47% 30.23 in 10.0 mi NW 3.5 mph - N/A   Clear
12:55 PM 79.0 °F - 57.6 °F 48% 30.23 in 10.0 mi West 3.5 mph - N/A   Clear
12:56 PM 79.0 °F - 57.4 °F 47% 30.23 in 10.0 mi NW 3.5 mph - N/A   Clear
1:15 PM 76.5 °F - 57.4 °F 52% 30.23 in 10.0 mi West 4.6 mph - N/A   Clear
1:35 PM 79.0 °F - 56.1 °F 45% 30.22 in 10.0 mi SW 5.8 mph - N/A   Clear
1:47 PM 78.8 °F - 57.2 °F 47% 30.22 in 10.0 mi WSW 5.8 mph - N/A   Scattered Clouds
1:55 PM 80.4 °F 80.3 °F 54.9 °F 41% 30.21 in 10.0 mi SW 4.6 mph - N/A   Scattered Clouds
2:15 PM 78.6 °F - 57.2 °F 48% 30.21 in 10.0 mi Calm Calm - N/A   Scattered Clouds
2:35 PM 77.7 °F - 56.8 °F 48% 30.20 in 10.0 mi West 3.5 mph - N/A   Scattered Clouds
2:36 PM 77.5 °F - 56.8 °F 49% 30.20 in 10.0 mi Calm Calm - N/A   Scattered Clouds
2:47 PM 77.0 °F - 57.2 °F 50% 30.20 in 10.0 mi West 3.5 mph - N/A   Scattered Clouds
2:55 PM 78.1 °F - 57.2 °F 49% 30.20 in 10.0 mi West 3.5 mph - N/A   Scattered Clouds
2:56 PM 78.3 °F - 57.6 °F 49% 30.20 in 10.0 mi West 3.5 mph - N/A   Scattered Clouds
3:15 PM 77.9 °F - 57.9 °F 50% 30.18 in 10.0 mi Calm Calm - N/A   Scattered Clouds
3:16 PM 77.9 °F - 58.3 °F 51% 30.18 in 10.0 mi WSW 3.5 mph - N/A   Scattered Clouds
3:35 PM 77.0 °F - 57.0 °F 50% 30.18 in 10.0 mi West 3.5 mph - N/A   Scattered Clouds
3:47 PM 77.0 °F - 57.2 °F 50% 30.18 in 10.0 mi NNW 3.5 mph - N/A   Scattered Clouds
3:55 PM 77.2 °F - 58.1 °F 52% 30.17 in 10.0 mi Calm Calm - N/A   Scattered Clouds
4:15 PM 77.0 °F - 57.4 °F 51% 30.17 in 10.0 mi Calm Calm - N/A   Clear
4:35 PM 77.4 °F - 58.1 °F 51% 30.16 in 10.0 mi Calm Calm - N/A   Clear
4:36 PM 77.5 °F - 58.1 °F 51% 30.16 in 10.0 mi Calm Calm - N/A   Clear
4:47 PM 77.0 °F - 57.2 °F 50% 30.15 in 10.0 mi Calm Calm - N/A   Clear
4:55 PM 76.5 °F - 57.6 °F 52% 30.15 in 10.0 mi Calm Calm - N/A   Clear
4:56 PM 76.5 °F - 57.4 °F 52% 30.15 in 10.0 mi Calm Calm - N/A   Clear
5:15 PM 77.0 °F - 58.8 °F 53% 30.15 in 10.0 mi Calm Calm - N/A   Clear
5:35 PM 76.5 °F - 58.6 °F 54% 30.14 in 10.0 mi SSE 3.5 mph - N/A   Clear
5:55 PM 75.4 °F - 59.9 °F 58% 30.13 in 10.0 mi Calm Calm - N/A   Mostly Cloudy
5:56 PM 75.6 °F - 60.1 °F 59% 30.13 in 10.0 mi Calm Calm - N/A   Mostly Cloudy
6:15 PM 75.4 °F - 58.6 °F 56% 30.14 in 10.0 mi Calm Calm - N/A   Mostly Cloudy
6:35 PM 74.3 °F - 59.0 °F 59% 30.14 in 10.0 mi Calm Calm - N/A   Mostly Cloudy
6:55 PM 73.8 °F - 60.1 °F 62% 30.13 in 10.0 mi SSE 3.5 mph - N/A   Overcast
6:56 PM 73.8 °F - 60.1 °F 62% 30.13 in 10.0 mi Calm Calm - N/A   Overcast
7:35 PM 72.7 °F - 59.0 °F 62% 30.12 in 10.0 mi SE 3.5 mph - N/A   Mostly Cloudy
7:36 PM 72.7 °F - 59.0 °F 62% 30.12 in 10.0 mi SE 3.5 mph - N/A   Mostly Cloudy
7:55 PM 72.1 °F - 58.5 °F 62% 30.12 in 10.0 mi South 4.6 mph - N/A   Mostly Cloudy
8:15 PM 70.9 °F - 59.9 °F 68% 30.11 in 10.0 mi South 3.5 mph - N/A   Mostly Cloudy
8:16 PM 70.9 °F - 59.7 °F 68% 30.11 in 10.0 mi South 3.5 mph - N/A   Mostly Cloudy
8:35 PM 70.9 °F - 59.2 °F 66% 30.12 in 10.0 mi Calm Calm - N/A   Mostly Cloudy
8:55 PM 71.1 °F - 58.8 °F 65% 30.12 in 10.0 mi Calm Calm - N/A   Mostly Cloudy
8:56 PM 71.1 °F - 58.6 °F 65% 30.12 in 10.0 mi Calm Calm - N/A   Scattered Clouds
9:15 PM 70.0 °F - 58.8 °F 68% 30.12 in 10.0 mi SE 3.5 mph - N/A   Mostly Cloudy
9:16 PM 70.0 °F - 59.0 °F 68% 30.12 in 10.0 mi SSE 3.5 mph - N/A   Mostly Cloudy
9:35 PM 68.9 °F - 59.0 °F 71% 30.12 in 10.0 mi SSE 3.5 mph - N/A   Overcast
9:55 PM 69.4 °F - 59.0 °F 69% 30.12 in 10.0 mi Calm Calm - N/A   Mostly Cloudy
10:15 PM 70.5 °F - 58.6 °F 66% 30.12 in 10.0 mi Calm Calm - N/A   Overcast
10:16 PM 70.3 °F - 58.5 °F 66% 30.12 in 10.0 mi Calm Calm - N/A   Overcast
10:35 PM 69.8 °F - 59.2 °F 69% 30.11 in 10.0 mi SSE 3.5 mph - N/A   Overcast
10:55 PM 69.8 °F - 58.6 °F 68% 30.11 in 10.0 mi Calm Calm - N/A   Mostly Cloudy
10:56 PM 69.8 °F - 58.6 °F 68% 30.12 in 10.0 mi Calm Calm - N/A   Mostly Cloudy
11:15 PM 68.9 °F - 58.8 °F 70% 30.10 in 10.0 mi SSE 3.5 mph - N/A   Mostly Cloudy
11:16 PM 68.9 °F - 59.0 °F 71% 30.10 in 10.0 mi SSE 4.6 mph - N/A   Mostly Cloudy
11:35 PM 68.0 °F - 59.0 °F 73% 30.11 in 10.0 mi SSE 4.6 mph - N/A   Scattered Clouds
11:36 PM 68.0 °F - 59.0 °F 73% 30.11 in 10.0 mi SSE 3.5 mph - N/A   Scattered Clouds
11:55 PM 67.6 °F - 59.0 °F 74% 30.11 in 10.0 mi SSE 3.5 mph - N/A   Scattered Clouds